Location: Newark
(43.4000°N, 45.7167°E)
Time: 11:46:11
(UTC+00:00)

ISS - Visible Passes

Search period start: 16 October 2019 00:00
Search period end: 26 October 2019 00:00
Orbit: 411 x 421 km, 51.6° (Epoch: 16 October)

Date Brightness Start Highest point End Pass type
(mag) Time Alt. Az. Time Alt. Az. Time Alt. Az.
23 Oct -0.8 02:29:43 10° S 02:32:03 18° SE 02:34:23 10° E visible
24 Oct -0.4 01:43:11 10° SE 01:43:42 10° SE 01:44:13 10° ESE visible
25 Oct -2.7 02:28:09 10° SW 02:31:23 45° SE 02:34:37 10° ENE visible
